Waarnemingen

Advertentie
Mijn weer
Valladolid, Spanje (8141): temperatuur & dauwpunt: 23.01.2020 19:00:00 - 29.01.2020 19:00:00 (CET)Valladolid, Spanje (8141): windsnelheid: 23.01.2020 19:00:00 - 29.01.2020 19:00:00 (CET)Valladolid, Spanje (8141): windrichting: 23.01.2020 19:00:00 - 29.01.2020 19:00:00 (CET)Valladolid, Spanje (8141): luchtdruk: 23.01.2020 19:00:00 - 29.01.2020 19:00:00 (CET)Valladolid, Spanje (8141): zicht: 23.01.2020 19:00:00 - 29.01.2020 19:00:00 (CET)Valladolid, Spanje (8141): neerslag: 23.01.2020 19:00:00 - 29.01.2020 19:00:00 (CET)
Datum & Tijd tt [°C] td [°C] ff [km/u] ff [kn] dd ppp [hPa] vv [km] rr [mm]
29.01.2020 19:00:00 10,7 10,1 2 1 Z 1022,5 15 -
29.01.2020 18:00:00 10,8 10,3 8 4 WZW 1022,1 11 0,2
29.01.2020 17:00:00 10,8 10,3 4 2 Z 1022,0 4,2 0,2
29.01.2020 16:00:00 10,6 10,0 5 3 ZZW 1022,0 6 -
29.01.2020 15:00:00 10,6 9,7 8 4 ZZW 1022,3 8 0,4
29.01.2020 14:00:00 10,6 9,4 8 4 ZZW 1023,0 15 0,6
29.01.2020 13:00:00 10,9 9,5 9 5 ZZW 1023,5 15 -
29.01.2020 12:00:00 10,4 9,3 8 4 ZW 1024,2 19 0,2
29.01.2020 11:00:00 9,8 8,9 9 5 ZW 1024,4 17 0,2
29.01.2020 10:00:00 9,5 8,4 8 4 ZW 1024,3 20 -
29.01.2020 09:00:00 9,1 8,2 4 2 ZZW 1023,8 20 0,0
29.01.2020 08:00:00 9,3 8,4 9 5 WZW 1023,4 20 0,0
29.01.2020 07:00:00 9,2 8,6 11 6 WZW 1022,9 15 -
29.01.2020 06:00:00 9,3 8,7 9 5 WZW 1022,4 20 0,0
29.01.2020 05:00:00 9,5 8,7 8 4 ZZW 1022,3 20 0,0
29.01.2020 04:00:00 10,0 8,8 11 6 WZW 1022,4 15 -
29.01.2020 03:00:00 10,2 9,0 11 6 WZW 1022,2 20 0,0
29.01.2020 02:00:00 10,5 9,4 15 8 WZW 1022,0 20 0,0
29.01.2020 01:00:00 10,6 9,7 18 10 WZW 1021,6 20 -
29.01.2020 00:00:00 10,3 9,8 15 8 WZW 1021,7 20 0,0
28.01.2020 23:00:00 10,1 9,9 8 4 ZZW 1021,8 - 0,4
28.01.2020 22:00:00 10,3 10,0 9 5 WZW 1021,6 5 -
28.01.2020 21:00:00 10,3 9,8 13 7 ZW 1021,5 - 0,2
28.01.2020 20:00:00 10,6 9,8 8 4 ZW 1021,2 18 0,0
28.01.2020 19:00:00 10,8 10,0 8 4 WZW 1020,8 15 -
28.01.2020 18:00:00 10,9 10,1 8 4 ZW 1020,3 20 0,0
28.01.2020 17:00:00 11,1 10,5 13 7 WZW 1020,2 18 1,0
28.01.2020 16:00:00 11,2 10,6 9 5 WZW 1020,2 5 -
28.01.2020 15:00:00 11,0 10,5 13 7 W 1020,4 3,8 3,0
28.01.2020 14:00:00 11,2 10,6 9 5 WZW 1020,7 2,9 0,2
28.01.2020 13:00:00 11,5 10,9 11 6 WZW 1021,1 6 -
28.01.2020 12:00:00 10,1 9,9 5 3 W 1022,0 1,5 1,0
28.01.2020 11:00:00 9,6 9,5 5 3 ZW 1021,6 2,5 0,4
28.01.2020 10:00:00 9,3 9,0 8 4 ZW 1021,4 5 -
28.01.2020 09:00:00 9,2 8,6 8 4 ZW 1020,7 17 0,0
28.01.2020 08:00:00 9,2 8,4 9 5 ZW 1020,4 20 0,0
28.01.2020 07:00:00 9,2 8,4 9 5 WZW 1019,9 15 -
28.01.2020 06:00:00 9,3 8,5 8 4 ZW 1019,7 20 0,0
28.01.2020 05:00:00 9,2 8,6 9 5 WZW 1019,8 15 0,0
28.01.2020 04:00:00 9,3 8,4 11 6 WZW 1019,7 15 -
28.01.2020 03:00:00 9,3 7,9 13 7 WZW 1019,4 16 0,0
28.01.2020 02:00:00 8,9 8,0 11 6 WZW 1019,6 19 0,0
28.01.2020 01:00:00 8,5 7,3 9 5 ZZW 1019,9 20 -
28.01.2020 00:00:00 8,1 7,2 5 3 Z 1020,1 14 0,0
27.01.2020 23:00:00 8,2 7,0 9 5 ZZW 1020,2 15 0,0
27.01.2020 22:00:00 8,0 6,6 8 4 Z 1020,1 20 -
27.01.2020 21:00:00 8,0 6,5 9 5 Z 1020,1 20 0,0
27.01.2020 20:00:00 8,4 6,7 9 5 ZW 1019,7 20 0,0
27.01.2020 19:00:00 8,7 6,7 8 4 ZZW 1019,6 25 -
27.01.2020 18:00:00 8,8 6,8 8 4 Z 1019,1 20 0,0
27.01.2020 17:00:00 8,3 7,1 9 5 ZW 1018,8 17 0,0
27.01.2020 16:00:00 9,3 6,9 16 9 WZW 1018,7 15 -
27.01.2020 15:00:00 9,9 6,8 13 7 ZW 1018,8 20 0,0
27.01.2020 14:00:00 9,4 7,0 13 7 ZW 1019,5 20 0,2
27.01.2020 13:00:00 8,1 7,0 8 4 Z 1020,9 15 -
27.01.2020 12:00:00 8,2 5,5 9 5 Z 1021,6 17 0,0
27.01.2020 11:00:00 7,3 4,8 9 5 Z 1021,9 20 0,0
27.01.2020 10:00:00 6,5 4,5 13 7 ZW 1022,5 20 -
27.01.2020 09:00:00 5,0 4,1 4 2 ZZO 1023,0 20 0,0
27.01.2020 08:00:00 4,6 3,7 5 3 Z 1022,8 20 0,0
27.01.2020 07:00:00 4,6 3,6 4 2 ZZO 1023,3 15 -
27.01.2020 06:00:00 4,6 3,6 5 3 Z 1023,9 20 0,0
27.01.2020 05:00:00 4,8 3,6 9 5 Z 1024,0 20 0,0
27.01.2020 04:00:00 5,5 3,8 5 3 Z 1024,5 20 -
27.01.2020 03:00:00 5,8 4,1 5 3 ZZW 1024,7 20 0,0
27.01.2020 02:00:00 6,1 4,3 4 2 Z 1024,8 20 0,0
27.01.2020 01:00:00 6,3 4,3 8 4 ZW 1025,2 20 -
27.01.2020 00:00:00 6,0 4,2 5 3 Z 1025,2 20 0,0
26.01.2020 23:00:00 6,1 4,3 4 2 Z 1025,2 20 0,0
26.01.2020 22:00:00 6,5 3,8 5 3 Z 1024,9 25 -
26.01.2020 21:00:00 6,5 4,0 8 4 Z 1024,9 20 0,0
26.01.2020 20:00:00 6,8 4,5 5 3 ZZW 1024,7 20 0,0
26.01.2020 19:00:00 7,1 4,6 4 2 Z 1024,2 25 -
26.01.2020 18:00:00 7,3 3,7 8 4 WZW 1023,9 20 0,0
26.01.2020 17:00:00 7,3 4,6 5 3 W 1023,7 20 0,0
26.01.2020 16:00:00 7,5 4,3 4 2 Z 1023,6 20 -
26.01.2020 15:00:00 5,4 4,7 5 3 ZW 1024,3 20 0,0
26.01.2020 14:00:00 4,0 4,0 4 2 WZW 1025,3 7 0,0
26.01.2020 13:00:00 3,5 3,5 8 4 ZW 1025,9 0,6 -
26.01.2020 12:00:00 3,2 3,2 5 3 ZW 1025,9 2,0 0,0
26.01.2020 11:00:00 2,2 2,2 4 2 ZZW 1026,2 0,6 0,0
26.01.2020 10:00:00 1,2 1,2 5 3 ZZW 1026,1 0,4 -
26.01.2020 09:00:00 1,5 1,5 8 4 Z 1025,0 0,8 0,0
26.01.2020 08:00:00 0,3 0,2 4 2 W 1024,8 0,5 0,0
26.01.2020 07:00:00 0,7 0,4 2 1 ZO 1023,8 0,6 -
26.01.2020 06:00:00 2,0 1,6 4 2 ZZW 1023,0 0,7 0,0
26.01.2020 05:00:00 3,3 3,0 4 2 ZO 1022,1 13 0,0
26.01.2020 04:00:00 3,5 2,9 4 2 WNW 1021,8 15 -
26.01.2020 03:00:00 4,9 4,2 2 1 ZZO 1020,6 20 0,0
26.01.2020 02:00:00 5,0 4,4 4 2 WNW 1020,7 20 0,0
26.01.2020 01:00:00 4,9 4,5 5 3 W 1020,4 25 -
26.01.2020 00:00:00 4,4 4,0 4 2 WNW 1020,4 20 0,0
25.01.2020 23:00:00 5,1 4,5 4 2 W 1019,9 19 0,0
25.01.2020 22:00:00 5,7 5,1 4 2 NW 1019,2 25 -
25.01.2020 21:00:00 5,9 5,2 4 2 NNW 1018,7 20 0,0
25.01.2020 20:00:00 6,3 5,7 4 2 NNW 1018,1 20 0,0
25.01.2020 19:00:00 6,7 5,8 5 3 NW 1017,3 15 -
25.01.2020 18:00:00 7,3 5,9 4 2 NW 1016,4 20 0,0
25.01.2020 17:00:00 8,1 6,2 2 1 W 1015,7 20 0,2
25.01.2020 16:00:00 8,4 5,9 4 2 Z 1015,5 15 -
25.01.2020 15:00:00 8,5 6,1 2 1 NNO 1015,7 20 0,0
25.01.2020 14:00:00 8,1 6,6 4 2 NNO 1016,4 20 0,0
25.01.2020 13:00:00 6,4 5,8 2 1 NO 1017,7 15 -
25.01.2020 12:00:00 5,3 4,9 2 1 NNO 1018,7 14 0,0
25.01.2020 11:00:00 4,5 4,2 4 2 NNW 1018,8 15 0,2
25.01.2020 10:00:00 4,0 3,7 4 2 N 1018,9 10 -
25.01.2020 09:00:00 3,4 3,3 4 2 NW 1018,6 10 0,2
25.01.2020 08:00:00 3,4 3,3 2 1 N 1018,3 9 0,0
25.01.2020 07:00:00 3,2 3,2 4 2 N 1018,0 10 -
25.01.2020 06:00:00 3,0 3,0 2 1 O 1018,4 13 0,0
25.01.2020 05:00:00 2,8 2,8 4 2 N 1018,5 6 0,0
25.01.2020 04:00:00 2,8 2,7 2 1 NNW 1019,2 7 -
25.01.2020 03:00:00 3,5 3,4 2 1 NNW 1019,5 5 0,0
25.01.2020 02:00:00 4,1 4,0 2 1 NNO 1019,8 7 0,0
25.01.2020 01:00:00 4,2 4,1 2 1 NNW 1020,1 7 -
25.01.2020 00:00:00 4,5 4,4 2 1 Z 1020,4 8 0,0
24.01.2020 23:00:00 4,8 4,7 4 2 ZO 1020,6 7 0,0
24.01.2020 22:00:00 4,6 4,3 0 0 N 1020,5 10 -
24.01.2020 21:00:00 5,3 4,9 2 1 NW 1020,4 9 0,0
24.01.2020 20:00:00 5,6 5,2 2 1 NO 1020,4 12 0,0
24.01.2020 19:00:00 5,9 5,3 2 1 ONO 1019,9 15 -
24.01.2020 18:00:00 6,3 5,6 4 2 NNW 1019,4 16 0,0
24.01.2020 17:00:00 6,4 5,5 2 1 NW 1019,4 20 0,0
24.01.2020 16:00:00 6,4 5,5 2 1 NNO 1019,5 10 -
24.01.2020 15:00:00 6,2 5,5 2 1 NNO 1020,1 11 0,4
24.01.2020 14:00:00 5,6 4,6 4 2 O 1021,0 8 0,6
24.01.2020 13:00:00 5,2 3,9 0 0 N 1022,0 9 -
24.01.2020 12:00:00 4,7 3,2 2 1 NNW 1022,5 19 0,0
24.01.2020 11:00:00 3,7 2,7 4 2 NNW 1022,4 20 0,0
24.01.2020 10:00:00 2,8 2,1 4 2 NW 1022,2 12 -
24.01.2020 09:00:00 2,3 1,6 4 2 NW 1022,1 20 0,0
24.01.2020 08:00:00 2,6 1,7 2 1 NW 1021,7 20 0,0
24.01.2020 07:00:00 3,0 2,1 2 1 WNW 1021,2 12 -
24.01.2020 06:00:00 3,0 2,0 2 1 NW 1021,1 20 0,0
24.01.2020 05:00:00 3,2 2,0 2 1 N 1021,1 20 0,0
24.01.2020 04:00:00 2,9 1,7 2 1 ONO 1021,5 12 -
24.01.2020 03:00:00 3,4 1,9 2 1 NNW 1021,3 20 0,0
24.01.2020 02:00:00 3,6 2,0 2 1 NW 1021,3 20 0,0
24.01.2020 01:00:00 3,8 2,0 2 1 NW 1021,3 15 -
24.01.2020 00:00:00 4,5 2,2 2 1 NO 1020,9 20 0,0
23.01.2020 23:00:00 5,2 2,9 2 1 NNW 1020,5 20 0,0
23.01.2020 22:00:00 5,5 3,0 2 1 ZO 1020,1 15 -
23.01.2020 21:00:00 6,4 2,1 4 2 ZZO 1019,4 20 0,0
23.01.2020 20:00:00 7,0 2,3 5 3 ZZO 1018,7 20 0,0
23.01.2020 19:00:00 7,4 3,3 4 2 ZO 1018,1 25 -

tt = temperatuur
td = dauwpunt
ff = windsnelheid
dd = windrichting
ppp = luchtdruk
vv = zicht
rr = neerslag

Weerstations in de omgeving